,,PA_Meas_PMT16A,,PR_Meas_QMR101_102,,RH_Meas_QMH101,,SR_Meas_QMS101,,TA_Meas_QMH101,,GenWind,,GenWind,
time,status,PA,status,PR,status,RH,status,SR,status,TA,status,DirAvg,status,SpdAvg,
2015-02-10, 07:19:04,VALID,919.12,VALID,0,VALID,87.2576,VALID,77.3576,VALID,19.8993,VALID,121,VALID,0.804688,
2015-02-10, 07:20:04,VALID,919.155,VALID,0,VALID,86.8688,VALID,73.7046,VALID,19.8783,VALID,146,VALID,1.36484,
2015-02-10, 07:21:04,VALID,919.177,VALID,0,VALID,86.4419,VALID,89.2836,VALID,19.9383,VALID,124,VALID,1.79414,
2015-02-10, 07:22:04,VALID,919.201,VALID,0,VALID,86.4572,VALID,98.0938,VALID,19.9968,VALID,141,VALID,1.19297,
2015-02-10, 07:23:04,VALID,919.219,VALID,0,VALID,86.4877,VALID,102.391,VALID,19.9953,VALID,140,VALID,1.14922,
2015-02-10, 07:24:04,VALID,919.22,VALID,0,VALID,86.2208,VALID,108.408,VALID,20.0538,VALID,140,VALID,1.41797,
2015-02-10, 07:25:04,VALID,919.243,VALID,0,VALID,86.0303,VALID,114.21,VALID,20.0733,VALID,140,VALID,1.70273,
2015-02-10, 07:26:04,VALID,919.253,VALID,0,VALID,86.0226,VALID,115.822,VALID,20.0928,VALID,132,VALID,1.64727,
2015-02-10, 07:27:04,VALID,919.249,VALID,0,VALID,86.2132,VALID,119.797,VALID,20.1318,VALID,138,VALID,0.139453,
2015-02-10, 07:28:04,VALID,919.255,VALID,0,VALID,85.611,VALID,119.045,VALID,20.1708,VALID,147,VALID,1.85,
2015-02-10, 07:29:04,VALID,919.278,VALID,0,VALID,85.5271,VALID,117.111,VALID,20.2098,VALID,142,VALID,1.71406,
2015-02-10, 07:30:04,VALID,919.284,VALID,0,VALID,85.5957,VALID,121.731,VALID,20.2098,VALID,136,VALID,1.08555,
2015-02-10, 07:31:04,VALID,919.277,VALID,0,VALID,85.7177,VALID,113.673,VALID,20.2684,VALID,145,VALID,0.334375,
2015-02-10, 07:32:04,VALID,919.295,VALID,0,VALID,85.2222,VALID,124.524,VALID,20.2879,VALID,141,VALID,0.953125,
2015-02-10, 07:33:04,VALID,919.276,VALID,0,VALID,84.8944,VALID,127.855,VALID,20.2863,VALID,141,VALID,0,
2015-02-10, 07:34:04,VALID,919.305,VALID,0,VALID,84.5361,VALID,127.962,VALID,20.3448,VALID,155,VALID,1.13906,
2015-02-10, 07:35:04,VALID,919.327,VALID,0,VALID,84.4598,VALID,133.979,VALID,20.3659,VALID,151,VALID,0.857031,
2015-02-10, 07:36:04,VALID,919.317,VALID,0,VALID,85.1231,VALID,139.673,VALID,20.3643,VALID,132,VALID,0.254687,
2015-02-10, 07:37:04,VALID,919.355,VALID,0,VALID,85.1383,VALID,138.814,VALID,20.4244,VALID,137,VALID,0.0046875,
2015-02-10, 07:38:04,VALID,919.353,VALID,0,VALID,84.6428,VALID,141.285,VALID,20.4439,VALID,137,VALID,1.28945,
2015-02-10, 07:39:04,VALID,919.375,VALID,0,VALID,84.7266,VALID,146.013,VALID,20.4423,VALID,130,VALID,0.714063,
2015-02-10, 07:40:04,VALID,919.365,VALID,0,VALID,83.5526,VALID,146.227,VALID,20.4423,VALID,149,VALID,1.17383,
2015-02-10, 07:41:04,VALID,919.331,VALID,0,VALID,83.9796,VALID,147.946,VALID,20.5009,VALID,149,VALID,0.155469,
2015-02-10, 07:42:04,VALID,919.388,VALID,0,VALID,83.8804,VALID,152.459,VALID,20.5594,VALID,135,VALID,0.375391,
2015-02-10, 07:43:04,VALID,919.377,VALID,0,VALID,84.071,VALID,155.145,VALID,20.5789,VALID,128,VALID,1.05469,
2015-02-10, 07:44:04,VALID,919.412,VALID,0,VALID,84.0787,VALID,160.195,VALID,20.678,VALID,141,VALID,0.809375,
2015-02-10, 07:45:04,VALID,919.415,VALID,0,VALID,83.5603,VALID,165.889,VALID,20.6959,VALID,121,VALID,0.672266,
2015-02-10, 07:46:04,VALID,919.4,VALID,0,VALID,82.3558,VALID,171.369,VALID,20.6553,VALID,103,VALID,2.04922,
2015-02-10, 07:47:04,VALID,919.408,VALID,0,VALID,82.7369,VALID,170.939,VALID,20.6959,VALID,131,VALID,0.400391,
2015-02-10, 07:48:04,VALID,919.433,VALID,0,VALID,82.6912,VALID,175.774,VALID,20.7349,VALID,120,VALID,1.06016,
2015-02-10, 07:49:04,VALID,919.429,VALID,0,VALID,82.9961,VALID,183.08,VALID,20.7739,VALID,152,VALID,0.00664063,
2015-02-10, 07:50:04,VALID,919.438,VALID,0,VALID,82.2033,VALID,185.873,VALID,20.8519,VALID,152,VALID,0.733203,
2015-02-10, 07:51:04,VALID,919.445,VALID,0,VALID,81.9212,VALID,188.989,VALID,20.9511,VALID,155,VALID,2.1125,
2015-02-10, 07:52:04,VALID,919.467,VALID,0,VALID,82.1652,VALID,190.278,VALID,20.9089,VALID,64,VALID,1.78984,
2015-02-10, 07:53:04,VALID,919.462,VALID,0,VALID,81.7078,VALID,194.361,VALID,20.9885,VALID,100,VALID,1.40195,
2015-02-10, 07:54:04,VALID,919.48,VALID,0,VALID,81.8221,VALID,197.584,VALID,21.0259,VALID,86,VALID,0.708984,
2015-02-10, 07:55:04,VALID,919.483,VALID,0,VALID,80.6481,VALID,204.138,VALID,21.1055,VALID,98,VALID,1.93711,
2015-02-10, 07:56:04,VALID,919.497,VALID,0,VALID,81.9288,VALID,204.675,VALID,21.0844,VALID,113,VALID,0.988281,
2015-02-10, 07:57:04,VALID,919.523,VALID,0,VALID,79.5808,VALID,209.618,VALID,21.1624,VALID,127,VALID,2.15664,
2015-02-10, 07:58:04,VALID,919.542,VALID,0,VALID,79.4284,VALID,213.271,VALID,21.1836,VALID,120,VALID,2.15625,
2015-02-10, 07:59:04,VALID,919.546,VALID,0,VALID,80.2517,VALID,213.915,VALID,21.2421,VALID,135,VALID,1.63789,
2015-02-10, 08:00:04,VALID,919.585,VALID,0,VALID,80.6481,VALID,218.75,VALID,21.221,VALID,162,VALID,1.19453,
2015-02-10, 08:01:04,VALID,919.577,VALID,0,VALID,80.7625,VALID,218.858,VALID,21.3217,VALID,134,VALID,1.09258,
2015-02-10, 08:02:04,VALID,919.629,VALID,0,VALID,79.9773,VALID,225.841,VALID,21.3786,VALID,151,VALID,0.626172,
2015-02-10, 08:03:04,VALID,919.657,VALID,0,VALID,79.5808,VALID,229.172,VALID,21.3396,VALID,154,VALID,0.439844,
2015-02-10, 08:04:04,VALID,919.669,VALID,0,VALID,80.145,VALID,233.685,VALID,21.3396,VALID,144,VALID,0.440234,
2015-02-10, 08:05:04,VALID,919.689,VALID,0,VALID,79.7714,VALID,239.271,VALID,21.3006,VALID,170,VALID,0.882422,
2015-02-10, 08:06:04,VALID,919.733,VALID,0,VALID,79.7257,VALID,237.875,VALID,21.3006,VALID,166,VALID,0.794922,
2015-02-10, 08:07:04,VALID,919.759,VALID,0,VALID,79.3979,VALID,239.809,VALID,21.3201,VALID,145,VALID,0.633984,
2015-02-10, 08:08:04,VALID,919.767,VALID,0,VALID,79.2225,VALID,251.95,VALID,21.3608,VALID,169,VALID,1.46992,
2015-02-10, 08:09:04,VALID,919.783,VALID,0,VALID,79.7638,VALID,263.446,VALID,21.3006,VALID,136,VALID,0.978906,
2015-02-10, 08:10:04,VALID,919.787,VALID,0,VALID,79.8172,VALID,263.661,VALID,21.2421,VALID,146,VALID,1.28672,
2015-02-10, 08:11:04,VALID,919.798,VALID,0,VALID,79.9773,VALID,263.446,VALID,21.2031,VALID,131,VALID,2.53047,
2015-02-10, 08:12:04,VALID,919.839,VALID,0,VALID,80.4728,VALID,263.661,VALID,21.2242,VALID,141,VALID,0.710156,
2015-02-10, 08:13:04,VALID,919.816,VALID,0,VALID,80.6024,VALID,265.487,VALID,21.26,VALID,133,VALID,1.40977,
2015-02-10, 08:14:04,VALID,919.826,VALID,0,VALID,79.8248,VALID,254.421,VALID,21.3396,VALID,120,VALID,0.134766,
2015-02-10, 08:15:04,VALID,919.831,VALID,0,VALID,79.2912,VALID,273.975,VALID,21.3786,VALID,164,VALID,1.82227,
2015-02-10, 08:16:04,VALID,919.83,VALID,0,VALID,79.5046,VALID,283.43,VALID,21.4372,VALID,161,VALID,1.24102,
2015-02-10, 08:17:04,VALID,919.864,VALID,0,VALID,78.5898,VALID,289.017,VALID,21.4762,VALID,171,VALID,1.34766,
2015-02-10, 08:18:04,VALID,919.898,VALID,0,VALID,77.8351,VALID,284.934,VALID,21.4567,VALID,120,VALID,3.17227,
2015-02-10, 08:19:04,VALID,919.884,VALID,0,VALID,79.6418,VALID,285.901,VALID,21.4372,VALID,95,VALID,2.4832,
2015-02-10, 08:20:04,VALID,919.96,VALID,0,VALID,79.4436,VALID,296.538,VALID,21.4567,VALID,102,VALID,1.86719,
2015-02-10, 08:21:04,VALID,919.868,VALID,0,VALID,77.9113,VALID,301.802,VALID,21.4567,VALID,107,VALID,3.1457,
2015-02-10, 08:22:04,VALID,919.95,VALID,0,VALID,79.8324,VALID,306.637,VALID,21.5347,VALID,162,VALID,0.401953,
2015-02-10, 08:23:04,VALID,919.963,VALID,0,VALID,78.8871,VALID,306.744,VALID,21.5331,VALID,130,VALID,1.23125,
2015-02-10, 08:24:04,VALID,919.958,VALID,0,VALID,79.9696,VALID,321.249,VALID,21.6534,VALID,131,VALID,0.88125,
2015-02-10, 08:25:04,VALID,919.917,VALID,0,VALID,78.4831,VALID,322.323,VALID,21.6518,VALID,55,VALID,3.8293,
2015-02-10, 08:26:04,VALID,919.962,VALID,0,VALID,78.7346,VALID,313.836,VALID,21.6746,VALID,131,VALID,0.888672,
2015-02-10, 08:27:04,VALID,919.948,VALID,0,VALID,77.5987,VALID,335.324,VALID,21.6713,VALID,152,VALID,2.67109,
2015-02-10, 08:28:04,VALID,919.924,VALID,0,VALID,78.5822,VALID,345.316,VALID,21.6518,VALID,95,VALID,2.50117,
2015-02-10, 08:29:04,VALID,919.933,VALID,0,VALID,79.253,VALID,334.249,VALID,21.6696,VALID,102,VALID,2.20195,
2015-02-10, 08:30:04,VALID,919.917,VALID,0,VALID,78.7194,VALID,325.224,VALID,21.6875,VALID,136,VALID,2.26523,
2015-02-10, 08:31:04,VALID,919.933,VALID,0,VALID,78.8414,VALID,337.365,VALID,21.79,VALID,125,VALID,0.574609,
2015-02-10, 08:32:04,VALID,919.91,VALID,0,VALID,79.6418,VALID,341.233,VALID,21.8485,VALID,118,VALID,1.55313,
2015-02-10, 08:33:04,VALID,919.9,VALID,0,VALID,79.2912,VALID,338.44,VALID,21.9054,VALID,138,VALID,0.703516,
2015-02-10, 08:34:04,VALID,919.905,VALID,0,VALID,77.3167,VALID,342.2,VALID,21.9835,VALID,101,VALID,3.14687,
2015-02-10, 08:35:04,VALID,919.903,VALID,0,VALID,78.1858,VALID,336.506,VALID,21.9835,VALID,93,VALID,1.875,
2015-02-10, 08:36:04,VALID,919.885,VALID,0,VALID,77.8732,VALID,346.283,VALID,22.0208,VALID,134,VALID,0.724219,
2015-02-10, 08:37:04,VALID,919.847,VALID,0,VALID,77.0575,VALID,346.175,VALID,22.0632,VALID,152,VALID,2.7207,
2015-02-10, 08:38:04,VALID,919.876,VALID,0,VALID,77.7665,VALID,345.746,VALID,22.0598,VALID,135,VALID,1.61992,
2015-02-10, 08:39:04,VALID,919.894,VALID,0,VALID,76.905,VALID,358.101,VALID,22.0191,VALID,138,VALID,2.2125,
2015-02-10, 08:40:04,VALID,919.891,VALID,0,VALID,76.7907,VALID,361.754,VALID,21.9623,VALID,127,VALID,1.82422,
2015-02-10, 08:41:04,VALID,919.878,VALID,0,VALID,77.0194,VALID,363.903,VALID,21.8241,VALID,173,VALID,0.965234,
2015-02-10, 08:42:04,VALID,919.892,VALID,0,VALID,77.4768,VALID,368.631,VALID,21.9216,VALID,166,VALID,0.791406,
2015-02-10, 08:43:04,VALID,919.866,VALID,0,VALID,77.7893,VALID,373.358,VALID,22.0794,VALID,121,VALID,1.17891,
2015-02-10, 08:44:04,VALID,919.874,VALID,0,VALID,78.1781,VALID,376.581,VALID,22.1786,VALID,104,VALID,0.621484,
2015-02-10, 08:45:04,VALID,919.825,VALID,0,VALID,76.0893,VALID,376.044,VALID,22.1752,VALID,137,VALID,1.74297,
2015-02-10, 08:46:04,VALID,919.843,VALID,0,VALID,74.3131,VALID,383.887,VALID,22.2567,VALID,101,VALID,2.4625,
2015-02-10, 08:47:04,VALID,919.871,VALID,0,VALID,76.562,VALID,320.067,VALID,22.2142,VALID,103,VALID,1.3875,
2015-02-10, 08:48:04,VALID,919.869,VALID,0,VALID,75.5709,VALID,399.466,VALID,22.1769,VALID,120,VALID,2.7375,
2015-02-10, 08:49:04,VALID,919.835,VALID,0,VALID,76.5315,VALID,391.086,VALID,22.1022,VALID,142,VALID,1.81562,
2015-02-10, 08:50:04,VALID,919.84,VALID,0,VALID,75.2812,VALID,156.219,VALID,22.0794,VALID,113,VALID,3.00273,
2015-02-10, 08:51:04,VALID,919.848,VALID,0,VALID,76.8135,VALID,406.987,VALID,21.9233,VALID,129,VALID,1.95742,
2015-02-10, 08:52:04,VALID,919.843,VALID,0,VALID,78.3154,VALID,377.978,VALID,22.003,VALID,129,VALID,1.29492,
2015-02-10, 08:53:04,VALID,919.819,VALID,0,VALID,74.5646,VALID,141.393,VALID,22.0598,VALID,98,VALID,1.28945,
2015-02-10, 08:54:04,VALID,919.822,VALID,0,VALID,75.2279,VALID,432.236,VALID,22.0598,VALID,110,VALID,2.44844,
2015-02-10, 08:55:04,VALID,919.816,VALID,0,VALID,77.2862,VALID,150.632,VALID,22.0598,VALID,133,VALID,1.46055,
2015-02-10, 08:56:04,VALID,919.826,VALID,0,VALID,77.3624,VALID,193.716,VALID,22.0615,VALID,75,VALID,0.840234,
2015-02-10, 08:57:04,VALID,919.82,VALID,0,VALID,77.4387,VALID,493.907,VALID,22.081,VALID,116,VALID,1.375,
2015-02-10, 08:58:04,VALID,919.857,VALID,0,VALID,77.8503,VALID,505.94,VALID,22.0208,VALID,116,VALID,0.132422,
2015-02-10, 08:59:04,VALID,919.806,VALID,0,VALID,77.088,VALID,499.816,VALID,22.1396,VALID,140,VALID,1.28008,
2015-02-10, 09:00:04,VALID,919.798,VALID,0,VALID,76.2723,VALID,490.899,VALID,22.2176,VALID,163,VALID,1.53164,
2015-02-10, 09:01:04,VALID,919.797,VALID,0,VALID,75.8454,VALID,448.03,VALID,22.1735,VALID,138,VALID,3.52734,
2015-02-10, 09:02:04,VALID,919.819,VALID,0,VALID,76.6687,VALID,234.651,VALID,22.2567,VALID,118,VALID,0.76875,
2015-02-10, 09:03:04,VALID,919.848,VALID,0,VALID,76.4781,VALID,485.956,VALID,22.2354,VALID,126,VALID,0.996875,
2015-02-10, 09:04:04,VALID,919.813,VALID,0,VALID,76.562,VALID,487.031,VALID,22.2354,VALID,135,VALID,1.07344,
2015-02-10, 09:05:04,VALID,919.824,VALID,0,VALID,72.1709,VALID,487.998,VALID,22.3916,VALID,70,VALID,3.50156,
2015-02-10, 09:06:04,VALID,919.816,VALID,0,VALID,73.4364,VALID,472.204,VALID,22.3525,VALID,101,VALID,2.11445,
2015-02-10, 09:07:04,VALID,919.837,VALID,0,VALID,74.6485,VALID,461.46,VALID,22.294,VALID,131,VALID,2.41484,
2015-02-10, 09:08:04,VALID,919.827,VALID,0,VALID,74.8315,VALID,490.899,VALID,22.4128,VALID,130,VALID,1.98945,
2015-02-10, 09:09:04,VALID,919.85,VALID,0,VALID,75.2584,VALID,479.725,VALID,22.4501,VALID,161,VALID,2.4707,
2015-02-10, 09:10:04,VALID,919.877,VALID,0,VALID,73.0857,VALID,490.254,VALID,22.4874,VALID,139,VALID,3.79531,
2015-02-10, 09:11:04,VALID,919.872,VALID,0,VALID,74.9306,VALID,487.568,VALID,22.4501,VALID,138,VALID,1.17461,
2015-02-10, 09:12:04,VALID,919.863,VALID,0,VALID,74.5951,VALID,339.944,VALID,22.4891,VALID,136,VALID,2.83867,
2015-02-10, 09:13:04,VALID,919.914,VALID,0,VALID,75.548,VALID,220.684,VALID,22.4891,VALID,108,VALID,0.480859,
2015-02-10, 09:14:04,VALID,919.876,VALID,0,VALID,74.4655,VALID,400.326,VALID,22.4679,VALID,131,VALID,2.94805,
2015-02-10, 09:15:04,VALID,919.918,VALID,0,VALID,75.1135,VALID,501.75,VALID,22.4094,VALID,103,VALID,2.48242,
2015-02-10, 09:16:04,VALID,919.931,VALID,0,VALID,75.7615,VALID,508.089,VALID,22.4679,VALID,98,VALID,1.61484,
2015-02-10, 09:17:04,VALID,919.927,VALID,0,VALID,74.7552,VALID,516.04,VALID,22.5867,VALID,116,VALID,2.31445,
2015-02-10, 09:18:04,VALID,919.908,VALID,0,VALID,73.9395,VALID,506.692,VALID,22.6257,VALID,122,VALID,2.95117,
2015-02-10, 09:19:04,VALID,919.937,VALID,0,VALID,74.3359,VALID,499.279,VALID,22.5672,VALID,97,VALID,2.58047,
2015-02-10, 09:20:04,VALID,919.896,VALID,0,VALID,73.8785,VALID,275.694,VALID,22.4696,VALID,114,VALID,1.36641,
2015-02-10, 09:21:04,VALID,919.938,VALID,0,VALID,75.388,VALID,539.14,VALID,22.5264,VALID,101,VALID,1.91641,
2015-02-10, 09:22:04,VALID,919.924,VALID,0,VALID,74.1758,VALID,534.197,VALID,22.5655,VALID,114,VALID,1.33281,
2015-02-10, 09:23:04,VALID,919.859,VALID,0,VALID,73.6193,VALID,541.933,VALID,22.6665,VALID,118,VALID,2.46719,
2015-02-10, 09:24:04,VALID,919.936,VALID,0,VALID,73.5431,VALID,181.361,VALID,22.5884,VALID,110,VALID,3.56406,
2015-02-10, 09:25:04,VALID,919.916,VALID,0,VALID,74.679,VALID,533.553,VALID,22.5655,VALID,86,VALID,1.28359,
2015-02-10, 09:26:04,VALID,919.955,VALID,0,VALID,71.3323,VALID,523.668,VALID,22.5884,VALID,121,VALID,2.8457,
2015-02-10, 09:27:04,VALID,919.936,VALID,0,VALID,74.8391,VALID,552.14,VALID,22.4874,VALID,139,VALID,1.50586,
2015-02-10, 09:28:04,VALID,919.902,VALID,0,VALID,75.6319,VALID,569.331,VALID,22.5459,VALID,52,VALID,1.38711,
2015-02-10, 09:29:04,VALID,919.906,VALID,0,VALID,73.5278,VALID,542.685,VALID,22.5069,VALID,78,VALID,3.46094,
2015-02-10, 09:30:04,VALID,919.908,VALID,0,VALID,74.6104,VALID,596.728,VALID,22.4679,VALID,101,VALID,0.736719,
2015-02-10, 09:31:04,VALID,919.951,VALID,0,VALID,75.022,VALID,615.53,VALID,22.5459,VALID,77,VALID,2.69336,
2015-02-10, 09:32:04,VALID,919.915,VALID,0,VALID,73.6727,VALID,643.25,VALID,22.6452,VALID,129,VALID,2.25703,
2015-02-10, 09:33:04,VALID,919.966,VALID,0,VALID,73.4287,VALID,223.048,VALID,22.4874,VALID,124,VALID,1.11055,
2015-02-10, 09:34:04,VALID,919.896,VALID,0,VALID,73.5507,VALID,238.842,VALID,22.3899,VALID,99,VALID,1.66016,
2015-02-10, 09:35:04,VALID,919.951,VALID,0,VALID,74.9153,VALID,207.791,VALID,22.2923,VALID,103,VALID,1.38047,
2015-02-10, 09:36:04,VALID,919.99,VALID,0,VALID,75.4108,VALID,349.721,VALID,22.1752,VALID,145,VALID,3.85898,
2015-02-10, 09:37:04,VALID,919.965,VALID,0,VALID,75.4413,VALID,529.792,VALID,22.1362,VALID,119,VALID,3.35547,
2015-02-10, 09:38:04,VALID,919.979,VALID,0,VALID,77.0499,VALID,185.336,VALID,22.1947,VALID,94,VALID,2.09141,
2015-02-10, 09:39:04,VALID,920.001,VALID,0,VALID,74.9992,VALID,349.399,VALID,22.1362,VALID,101,VALID,3.44102,
2015-02-10, 09:40:04,VALID,920.026,VALID,0,VALID,75.4032,VALID,232.61,VALID,22.0582,VALID,131,VALID,3.26211,
2015-02-10, 09:41:04,VALID,919.996,VALID,0,VALID,75.9978,VALID,208.758,VALID,22.0387,VALID,98,VALID,1.25625,
2015-02-10, 09:42:04,VALID,920.021,VALID,0,VALID,77.1413,VALID,257.751,VALID,22.1362,VALID,88,VALID,0.965234,
2015-02-10, 09:43:04,VALID,920.057,VALID,0,VALID,75.9902,VALID,631.109,VALID,22.1362,VALID,94,VALID,2.76719,
2015-02-10, 09:44:04,VALID,920.046,VALID,0,VALID,75.2584,VALID,239.164,VALID,22.1557,VALID,73,VALID,1.70859,
2015-02-10, 09:45:04,VALID,920.053,VALID,0,VALID,74.0157,VALID,256.032,VALID,22.1167,VALID,76,VALID,4.05977,
2015-02-10, 09:46:04,VALID,920.111,VALID,0,VALID,75.7158,VALID,239.486,VALID,22.0582,VALID,118,VALID,2.11289,
2015-02-10, 09:47:04,VALID,920.118,VALID,0,VALID,76.8517,VALID,226.486,VALID,22.0387,VALID,95,VALID,1.26719,
2015-02-10, 09:48:04,VALID,920.154,VALID,0,VALID,76.5696,VALID,231.643,VALID,22.0777,VALID,80,VALID,1.42656,
2015-02-10, 09:49:04,VALID,920.097,VALID,0,VALID,76.5543,VALID,251.735,VALID,22.0387,VALID,103,VALID,1.90586,
2015-02-10, 09:50:04,VALID,920.097,VALID,0,VALID,76.3638,VALID,201.237,VALID,21.9996,VALID,100,VALID,2.35703,
2015-02-10, 09:51:04,VALID,920.073,VALID,0,VALID,75.7386,VALID,212.626,VALID,21.9216,VALID,134,VALID,0.821484,
2015-02-10, 09:52:04,VALID,920.054,VALID,0,VALID,76.8212,VALID,217.998,VALID,21.9606,VALID,137,VALID,2.14336,
2015-02-10, 09:53:04,VALID,920.077,VALID,0,VALID,76.9279,VALID,188.129,VALID,21.9216,VALID,87,VALID,3.02305,
2015-02-10, 09:54:04,VALID,920.028,VALID,0,VALID,76.0588,VALID,218.965,VALID,21.9411,VALID,49,VALID,3.02344,
2015-02-10, 09:55:04,VALID,920.016,VALID,0,VALID,75.2889,VALID,238.627,VALID,21.959,VALID,50,VALID,3.34453,
2015-02-10, 09:56:04,VALID,920.059,VALID,0,VALID,76.5848,VALID,200.163,VALID,22.0387,VALID,84,VALID,2.09687,
2015-02-10, 09:57:04,VALID,920.03,VALID,0,VALID,75.3651,VALID,219.073,VALID,21.9606,VALID,77,VALID,2.97344,
2015-02-10, 09:58:04,VALID,920.022,VALID,0,VALID,76.4095,VALID,294.281,VALID,21.9216,VALID,81,VALID,2.05898,
2015-02-10, 09:59:04,VALID,919.957,VALID,0,VALID,75.9292,VALID,636.052,VALID,22.0387,VALID,131,VALID,0.850391,
2015-02-10, 10:00:04,VALID,919.88,VALID,0,VALID,74.3817,VALID,542.793,VALID,22.2745,VALID,69,VALID,2.25938,
2015-02-10, 10:01:04,VALID,919.962,VALID,0,VALID,73.9929,VALID,250.23,VALID,22.4289,VALID,151,VALID,0.753906,
2015-02-10, 10:02:04,VALID,919.909,VALID,0,VALID,75.3194,VALID,219.073,VALID,22.5069,VALID,113,VALID,0.955859,
2015-02-10, 10:03:04,VALID,919.955,VALID,0,VALID,74.9001,VALID,264.52,VALID,22.4662,VALID,121,VALID,0.946094,
2015-02-10, 10:04:04,VALID,919.931,VALID,0,VALID,74.153,VALID,779.808,VALID,22.4874,VALID,148,VALID,0.620703,
2015-02-10, 10:05:04,VALID,919.91,VALID,0,VALID,75.7996,VALID,357.886,VALID,22.6045,VALID,142,VALID,0.782812,
2015-02-10, 10:06:04,VALID,919.916,VALID,0,VALID,75.3803,VALID,829.338,VALID,22.8191,VALID,83,VALID,2.04141,
2015-02-10, 10:07:04,VALID,919.968,VALID,0,VALID,74.1225,VALID,306.852,VALID,22.9753,VALID,116,VALID,2.78555,
2015-02-10, 10:08:04,VALID,919.892,VALID,0,VALID,72.8265,VALID,708.037,VALID,22.9557,VALID,151,VALID,1.73125,
2015-02-10, 10:09:04,VALID,919.931,VALID,0,VALID,72.3233,VALID,435.244,VALID,22.9167,VALID,115,VALID,1.13242,
2015-02-10, 10:10:04,VALID,919.996,VALID,0,VALID,73.8328,VALID,633.043,VALID,22.7979,VALID,114,VALID,1.3875,
2015-02-10, 10:11:04,VALID,919.98,VALID,0,VALID,71.8507,VALID,522.701,VALID,22.7198,VALID,153,VALID,2.58437,
2015-02-10, 10:12:04,VALID,919.94,VALID,0,VALID,73.3296,VALID,310.075,VALID,22.7801,VALID,157,VALID,0.331641,
2015-02-10, 10:13:04,VALID,919.958,VALID,0,VALID,72.7655,VALID,308.356,VALID,22.8972,VALID,164,VALID,0.0417969,
2015-02-10, 10:14:04,VALID,919.946,VALID,0,VALID,72.27,VALID,347.035,VALID,22.9345,VALID,159,VALID,1.50273,
2015-02-10, 10:15:04,VALID,919.944,VALID,0,VALID,73.787,VALID,398.929,VALID,22.8955,VALID,110,VALID,2.5875,
2015-02-10, 10:16:04,VALID,919.884,VALID,0,VALID,73.3068,VALID,374.003,VALID,22.915,VALID,120,VALID,3.88242,
2015-02-10, 10:17:04,VALID,919.854,VALID,0,VALID,72.2471,VALID,392.697,VALID,22.8759,VALID,164,VALID,1.75078,
2015-02-10, 10:18:04,VALID,919.865,VALID,0,VALID,74.557,VALID,407.847,VALID,22.9753,VALID,126,VALID,2.57148,
2015-02-10, 10:19:04,VALID,919.809,VALID,0,VALID,73.8633,VALID,324.58,VALID,22.8174,VALID,130,VALID,3.22187,
2015-02-10, 10:20:04,VALID,919.826,VALID,0,VALID,73.8099,VALID,461.567,VALID,22.7996,VALID,144,VALID,2.35625,
2015-02-10, 10:21:04,VALID,919.803,VALID,0,VALID,72.7731,VALID,534.842,VALID,22.7979,VALID,138,VALID,1.30859,
2015-02-10, 10:22:04,VALID,919.771,VALID,0,VALID,71.8812,VALID,336.398,VALID,22.8387,VALID,144,VALID,1.68672,
2015-02-10, 10:23:04,VALID,919.736,VALID,0,VALID,73.0933,VALID,493.907,VALID,22.8369,VALID,134,VALID,1.28516,
2015-02-10, 10:24:04,VALID,919.753,VALID,0,VALID,73.6727,VALID,773.684,VALID,23.0143,VALID,57,VALID,2.23125,
2015-02-10, 10:25:04,VALID,919.779,VALID,0,VALID,73.4135,VALID,316.737,VALID,23.268,VALID,76,VALID,1.25937,
2015-02-10, 10:26:04,VALID,919.749,VALID,0,VALID,70.2193,VALID,390.334,VALID,23.3443,VALID,78,VALID,3.1293,
2015-02-10, 10:27:04,VALID,919.728,VALID,0,VALID,70.4327,VALID,822.355,VALID,23.1882,VALID,84,VALID,2.50586,
2015-02-10, 10:28:04,VALID,919.71,VALID,0,VALID,68.7556,VALID,797.751,VALID,23.1882,VALID,106,VALID,2.89141,
2015-02-10, 10:29:04,VALID,919.686,VALID,0,VALID,70.9816,VALID,770.89,VALID,23.1687,VALID,145,VALID,1.61641,
2015-02-10, 10:30:04,VALID,919.648,VALID,0,VALID,72.9561,VALID,774.543,VALID,23.3461,VALID,119,VALID,1.52109,
2015-02-10, 10:31:04,VALID,919.641,VALID,0,VALID,71.2484,VALID,792.378,VALID,23.6779,VALID,132,VALID,1.53086,
2015-02-10, 10:32:04,VALID,919.656,VALID,0,VALID,71.0274,VALID,822.355,VALID,23.834,VALID,87,VALID,1.60352,
2015-02-10, 10:33:04,VALID,919.636,VALID,0,VALID,69.5103,VALID,308.249,VALID,24.0878,VALID,58,VALID,2.17891,
2015-02-10, 10:34:04,VALID,919.691,VALID,0,VALID,67.7036,VALID,776.585,VALID,24.2049,VALID,71,VALID,2.70195,
2015-02-10, 10:35:04,VALID,919.674,VALID,0,VALID,68.1991,VALID,382.705,VALID,24.0683,VALID,70,VALID,0.209766,
2015-02-10, 10:36:04,VALID,919.66,VALID,0,VALID,67.2462,VALID,278.487,VALID,23.9707,VALID,98,VALID,1.95938,
2015-02-10, 10:37:04,VALID,919.706,VALID,0,VALID,68.1152,VALID,289.017,VALID,23.756,VALID,126,VALID,2.65,
2015-02-10, 10:38:04,VALID,919.702,VALID,0,VALID,70.1278,VALID,306.1,VALID,23.5022,VALID,137,VALID,1.46992,
2015-02-10, 10:39:04,VALID,919.686,VALID,0,VALID,69.3807,VALID,392.483,VALID,23.307,VALID,136,VALID,2.19766,
2015-02-10, 10:40:04,VALID,919.682,VALID,0,VALID,72.1175,VALID,871.455,VALID,23.3461,VALID,109,VALID,0.0136719,
2015-02-10, 10:41:04,VALID,919.67,VALID,0,VALID,72.0794,VALID,922.382,VALID,23.559,VALID,70,VALID,2.31055,
2015-02-10, 10:42:04,VALID,919.668,VALID,0,VALID,70.9359,VALID,319.315,VALID,23.8926,VALID,104,VALID,0.950781,
2015-02-10, 10:43:04,VALID,919.684,VALID,0,VALID,70.7301,VALID,946.234,VALID,24.0488,VALID,79,VALID,0.0488281,
2015-02-10, 10:44:04,VALID,919.639,VALID,0,VALID,68.2448,VALID,345.531,VALID,24.1854,VALID,151,VALID,2.53555,
2015-02-10, 10:45:04,VALID,919.67,VALID,0,VALID,67.3224,VALID,526.354,VALID,24.0097,VALID,141,VALID,3.21367,
2015-02-10, 10:46:04,VALID,919.604,VALID,0,VALID,67.978,VALID,279.454,VALID,23.8145,VALID,95,VALID,0.778906,
2015-02-10, 10:47:04,VALID,919.643,VALID,0,VALID,69.1977,VALID,594.579,VALID,23.756,VALID,120,VALID,1.96953,
2015-02-10, 10:48:04,VALID,919.621,VALID,0,VALID,68.5955,VALID,330.596,VALID,23.7169,VALID,111,VALID,2.18086,
2015-02-10, 10:49:04,VALID,919.637,VALID,0,VALID,67.9475,VALID,404.086,VALID,23.7932,VALID,114,VALID,2.11406,
2015-02-10, 10:50:04,VALID,919.548,VALID,0,VALID,70.9816,VALID,334.035,VALID,23.8536,VALID,77,VALID,2.32813,
2015-02-10, 10:51:04,VALID,919.588,VALID,0,VALID,67.9018,VALID,366.052,VALID,23.8731,VALID,116,VALID,2.61875,
2015-02-10, 10:52:04,VALID,919.562,VALID,0,VALID,67.9551,VALID,382.061,VALID,23.7169,VALID,119,VALID,0.378906,
2015-02-10, 10:53:04,VALID,919.545,VALID,0,VALID,70.791,VALID,329.629,VALID,23.834,VALID,80,VALID,0.482812,